Regional Weather Roundup
Issued by NWS

Home | Current Version | Previous Version | Graphics & Text | Print | Product List | Glossary On
Versions: 1 2 3 4 5 6 7 8 9 10 11 12 13 14 15 16 17 18 19 20 21 22 23 24 25 26 27 28 29 30 31 32 33 34 35 36 37 38 39 40 41 42 43 44 45 46 47 48 49 50
000
ASUS43 KBIS 271101
RWRND

NORTH DAKOTA REGIONAL WEATHER ROUNDUP
NATIONAL WEATHER SERVICE BISMARCK ND
500 AM CST TUE JAN 27 2015

NOTE: "FAIR" INDICATES FEW OR NO CLOUDS BELOW 12,000 FEET WITH NO
SIGNIFICANT WEATHER AND/OR OBSTRUCTIONS TO VISIBILITY.


NDZ001>003-009>011-017-271200-
NORTHWEST NORTH DAKOTA

CITY           SKY/WX    TMP DP  RH WIND       PRES   REMARKS
WILLISTON      MOCLDY    28  26  92 CALM      29.84S
MINOT          CLEAR     30  27  88 E3        29.85F
MINOT AFB      PTCLDY    27  27 100 SE6       29.85F
$$

NDZ018>021-031>035-040>046-271200-
SOUTHWEST NORTH DAKOTA

CITY           SKY/WX    TMP DP  RH WIND       PRES   REMARKS
BISMARCK       PTCLDY    29  28  96 E8        29.93S
DICKINSON      MOCLDY    33  28  81 SW6       29.83F
GARRISON         N/A     29  27  92 SE5       29.87F
HETTINGER ARPT PTCLDY    29  26  89 CALM      29.89F
$$

NDZ004>008-012>016-024-026-027-054-271200-
NORTHEAST NORTH DAKOTA

CITY           SKY/WX    TMP DP  RH WIND       PRES   REMARKS
GRAND FORKS    FOG       25  24  96 S9        30.03F VSB 1/2 WCI  15
GRND FRKS AFB  CLOUDY    23  21  93 S5        30.02F FOG     WCI  17
DEVILS LAKE    MOCLDY    21  19  93 SE3       29.94F
$$

NDZ022-023-025-028>030-036>039-047>053-271200-
SOUTHEAST NORTH DAKOTA

CITY           SKY/WX    TMP DP  RH WIND       PRES   REMARKS
FARGO          FOG       27  25  92 SE7       30.05S VSB 1/2 WCI  19
JAMESTOWN      CLEAR     25  24  96 S5        29.98S WCI  19
$$



USA.gov is the U.S. government's official web portal to all federal, state and local government web resources and services.